Home > Time Zones > World Clock > Weather > Spain > Jaén > Past weeks

Flag for Spain Weather past 2 weeks in Jaén, Spain

Now
41 °F

Clear.


Feels Like: 41 °F
Forecast: 34 / 62 °F
Wind: No wind

Location: Granada / Aeropuerto

Current Time: Dec 18, 2014 at 10:24:22 PM

Latest Report: Dec 18, 2014 at 10:00 PM


Visibility: 10 mi

Pressure: 30.36 "Hg

Humidity: 93%

Dew point: 39 °F

Location of JaénLocation

Historic Weather in Jaén — Graph

°F

Jaén temperature yesterday

Maximum temperature yesterday: 61 °F (at 2:00 PM)
Minimum temperature yesterday: 30 °F (at 8:00 AM)
Average temperature yesterday: 48 °F

Past Weeks' High & Low Weather Summary

 TemperatureHumidityPressure
High64 °F (Dec 18, 4:30 PM)100% (Dec 3, 10:30 PM)30.51 "Hg (Dec 3, 10:30 PM)
Low25 °F (Dec 8, 7:00 AM)27% (Dec 12, 4:30 PM)29.80 "Hg (Dec 3, 9:00 PM)
Average45 °F77%30.19 "Hg
* Reported Dec 3 9:00 PM — Dec 18 9:00 PM, Jaén, Weather by CustomWeather, © 2014

Note: Actual official high and low records may vary slightly from our data, if they occured in-between our weather recording intervals... More about our weather records

Advertising

Jaén weather history for previous 24 hours

 ConditionsComfort  
Time TempWeatherWind HumidityBarometerVisibility
9:00 PM
Dec 18
43 °FClear.No wind87%30.36 "Hg10 mi
8:30 PM45 °FClear.1 mph87%30.36 "Hg10 mi
8:00 PM48 °FClear.No wind82%30.33 "Hg10 mi
7:30 PM48 °FClear.No wind82%30.33 "Hg10 mi
7:00 PM50 °FClear.7 mph76%30.30 "Hg10 mi
6:30 PM50 °FClear.5 mph76%30.30 "Hg10 mi
6:00 PM57 °FClear.2 mph59%30.30 "Hg10 mi
5:30 PM61 °FSunny.2 mph52%30.30 "Hg10 mi
5:00 PM63 °FSunny.2 mph49%30.27 "Hg10 mi
4:30 PM64 °FSunny.No wind46%30.27 "Hg10 mi
4:00 PM63 °FSunny.No wind49%30.27 "Hg10 mi
3:30 PM63 °FSunny.No wind49%30.27 "Hg10 mi
3:00 PM63 °FSunny.No wind52%30.27 "Hg10 mi
2:30 PM61 °FSunny.No wind52%30.30 "Hg10 mi
2:00 PM59 °FSunny.No wind59%30.30 "Hg10 mi
1:30 PM55 °FSunny.No wind63%30.33 "Hg10 mi
1:00 PM54 °FSunny.No wind67%30.33 "Hg10 mi
12:30 PM52 °FSunny.No wind72%30.33 "Hg10 mi
12:00 PM50 °FSunny.No wind71%30.36 "Hg10 mi
11:30 AM46 °FSunny.No wind82%30.36 "Hg10 mi
11:00 AM45 °FSunny.No wind87%30.36 "Hg10 mi
10:30 AM41 °FSunny.No wind93%30.36 "Hg10 mi
10:00 AM41 °FSunny.No wind93%30.36 "Hg10 mi
9:30 AM34 °FSunny.1 mph100%30.36 "Hg10 mi
9:00 AM32 °FSunny.1 mph100%30.36 "Hg10 mi
8:30 AM32 °FPassing clouds.No wind100%30.33 "HgN/A
8:00 AM32 °FClear.No wind100%30.33 "Hg10 mi
7:30 AM32 °FClear.No wind100%30.33 "Hg10 mi
7:00 AM32 °FClear.1 mph100%30.33 "Hg10 mi
6:30 AM32 °FClear.3 mph100%30.30 "Hg10 mi
6:00 AM34 °FClear.No wind100%30.30 "Hg10 mi
11:00 PM
Dec 17
52 °FClear.2 mph67%30.30 "Hg10 mi
10:30 PM52 °FClear.2 mph67%30.30 "Hg10 mi
10:00 PM50 °FClear.1 mph71%30.30 "Hg10 mi
Weather by CustomWeather, © 2014

See weather overviewHow to use our weather pages